Content
SEND FEEDBACK

Daily
Averages
Monthly
Summary
Philippines

BOOT, PHILIPPINES


Home > Asia > Philippines
Elevation: 11 meters     Latitude: 14 04N     Longitude: 121 03E

WEATHER
 
SELECT A DAY
Number of Records: 177,332;   Date Range: 7/1/96 - 10/30/14
 
SHARE

PRINT THIS DATA

[ ← Previous Day ]
WEATHER ALMANAC - 13 FEBRUARY, 2013
[ Next Day → ]
[ °F ]   °C
Weather ElementAverageHighLow
Temperature27.7 °C31.1 °C (2:00 pm)24 °C (3:00 am)
Dewpoint21.8 °C23 °C (2:00 am)21 °C (4:00 am)
Humidity69.3 %89 % (2:00 am)49 % (11:00 am)
Barometer1012.5 hPa1014.6 hPa (11:00 am)1010.2 hPa (3:00 pm)
Wind Speed13.5 km/h22.2 km/h (4:00 pm)
Weather ElementAverage
Visibility9.8 km
Wind DirectionENE (78 °)

Weather ElementTotal
Precipitation---
Cooling Degree Days9.2 (Base 18.3)
Growing Degree Days17.6 (Base 10)
Averaged from 30 records on 13 February, 2013
WEATHER CONDITIONS BREAKOUT
WIND DIRECTION BREAKOUT
WEATHER BY HOUR - 13 FEBRUARY, 2013
[ °F ]   °C
Local TimeTemperatureDewpointHumidityBarometerVisibilityWind DirectionWind SpeedGust SpeedPrecipitationEventsConditions
1:00 AM27 °C22 °C74 %1013.2 hPa10 kmEast (80°)9.3 km/hMostly Cloudy
2:00 AM25 °C22.8 °C85 %1013.2 hPa9.7 kmENE (60°)10.8 km/hHaze
2:00 AM25 °C23 °C89 %1013.2 hPa10 kmENE (60°)11.1 km/hPartly Cloudy
3:00 AM24 °C22 °C89 %1012.2 hPa10 kmENE (60°)5.6 km/hPartly Cloudy
4:00 AM24 °C21 °C83 %1012.2 hPa10 kmENE (70°)7.4 km/hPartly Cloudy
5:00 AM24.4 °C21.7 °C80 %1012.5 hPa9.7 kmNE (40°)7.2 km/hHaze
5:00 AM25 °C22 °C83 %1012.2 hPa10 kmNE (40°)5.6 km/hPartly Cloudy
6:00 AM25 °C21 °C78 %1012.2 hPa10 kmVariable3.7 km/hPartly Cloudy
8:00 AM26.1 °C21.1 °C68 %1014.2 hPa9.7 kmNNE (30°)7.2 km/hHaze
8:00 AM26 °C21 °C74 %1014.2 hPa10 kmNNE (30°)7.4 km/hScattered Clouds
9:00 AM28 °C21 °C66 %1014.2 hPa10 kmEast (100°)5.6 km/hPartly Cloudy
10:00 AM29 °C21 °C62 %1014.2 hPa10 kmVariable11.1 km/hScattered Clouds
11:00 AM30 °C21.1 °C49 %1014.6 hPa9.7 kmEast (100°)10.8 km/hHaze
11:00 AM30 °C21 °C58 %1014.2 hPa10 kmEast (100°)13 km/hScattered Clouds
12:00 PM30 °C21 °C58 %1013.2 hPa10 kmNorthScattered Clouds
1:00 PM31 °C22 °C58 %1012.2 hPa10 kmEast (90°)14.8 km/hScattered Clouds
2:00 PM31.1 °C22.2 °C51 %1011.2 hPa9.7 kmESE (110°)18 km/hHaze
2:00 PM31 °C22 °C58 %1011.2 hPa10 kmESE (110°)20.4 km/hScattered Clouds
3:00 PM31 °C22 °C58 %1010.2 hPa10 kmESE (110°)20.4 km/hScattered Clouds
4:00 PM30 °C21 °C58 %1010.2 hPa10 kmEast (100°)22.2 km/hMostly Cloudy
5:00 PM29.4 °C22.2 °C56 %1011.2 hPa9.7 kmEast (100°)21.6 km/hHaze
5:00 PM29 °C22 °C66 %1011.2 hPa10 kmEast (100°)22.2 km/hScattered Clouds
6:00 PM29 °C22 °C66 %1011.2 hPa10 kmESE (110°)16.7 km/hScattered Clouds
7:00 PM28 °C22 °C70 %1011.2 hPa10 kmESE (110°)18.5 km/hMostly Cloudy
8:00 PM27.2 °C22.2 °C68 %1012.2 hPa9.7 kmESE (110°)14.3 km/hHaze
8:00 PM27 °C22 °C74 %1012.2 hPa10 kmESE (110°)14.8 km/hScattered Clouds
9:00 PM27 °C22 °C74 %1013.2 hPa10 kmEast (100°)18.5 km/hPartly Cloudy
10:00 PM27 °C22 °C74 %1013.2 hPa10 kmEast (90°)18.5 km/hPartly Cloudy
11:00 PM26.7 °C22.2 °C72 %1013.2 hPa9.7 kmESE (110°)18 km/hHaze
11:00 PM27 °C23 °C79 %1013.2 hPa10 kmESE (110°)18.5 km/hPartly Cloudy
Hourly data recorded from RPLL, located 0 kilometers away from Boot, Philippines







STORIES FROM OUR PARTNERS